Location: Newark
(44.6028°N, 124.0883°W)
Time: 07:19:41
(UTC+00:00)

S-56A Canister/Altair - Visible Passes

Search period start: 19 October 2019 00:00
Search period end: 29 October 2019 00:00
Orbit: 633 x 2499 km, 38.9° (Epoch: 18 October)

Date Brightness Start Highest point End Pass type
(mag) Time Alt. Az. Time Alt. Az. Time Alt. Az.
19 Oct 10.0 10:35:56 25° ESE 10:35:56 25° ESE 10:40:38 10° E visible
19 Oct 9.0 12:33:22 34° SW 12:36:52 59° S 12:47:33 10° E visible
20 Oct 10.5 10:05:05 16° ESE 10:05:05 16° ESE 10:07:01 10° E visible
20 Oct 8.7 12:02:31 48° SSW 12:04:02 55° SSE 12:13:53 10° E visible
20 Oct 9.5 14:00:25 10° W 14:08:29 60° S 14:20:33 10° ESE visible
21 Oct 8.8 11:31:40 50° SSE 11:31:40 50° SSE 11:40:17 10° E visible
21 Oct 9.2 13:29:06 16° W 13:35:28 60° S 13:46:53 10° ESE visible
22 Oct 9.4 11:00:48 37° ESE 11:00:48 37° ESE 11:06:46 10° E visible
22 Oct 9.0 12:58:14 27° WSW 13:02:31 59° S 13:13:14 10° ESE visible
23 Oct 10.1 10:29:57 23° ESE 10:29:57 23° ESE 10:33:18 10° E visible
23 Oct 8.7 12:27:23 43° SW 12:29:39 59° S 12:39:37 10° ESE visible
24 Oct 10.7 09:59:07 13° E 09:59:07 13° E 09:59:55 10° E visible
24 Oct 8.5 11:56:32 57° S 11:56:52 57° S 12:06:04 10° ESE visible
24 Oct 9.5 13:53:58 11° W 14:01:08 46° SSW 14:11:54 10° SE visible
25 Oct 8.9 11:25:42 47° SE 11:25:42 47° SE 11:32:35 10° ESE visible
25 Oct 9.3 13:23:08 20° WSW 13:28:13 47° SSW 13:38:23 10° SE visible
26 Oct 9.7 10:54:53 29° ESE 10:54:53 29° ESE 10:59:10 10° E visible
26 Oct 8.9 12:52:19 32° WSW 12:55:22 48° SSW 13:04:55 10° ESE visible
27 Oct 10.4 10:24:05 17° ESE 10:24:05 17° ESE 10:25:51 10° E visible
27 Oct 8.6 12:21:31 45° SW 12:22:34 48° S 12:31:28 10° ESE visible
28 Oct 8.8 11:50:44 46° SSE 11:50:44 46° SSE 11:58:05 10° ESE visible
28 Oct 9.8 13:48:11 12° WSW 13:53:51 29° SSW 14:02:22 10° SSE visible
